Regional Weather Roundup
Issued by NWS

Home | Current Version | Previous Version | Graphics & Text | Print | Product List | Glossary On
Versions: 1 2 3 4 5 6 7 8 9 10 11 12 13 14 15 16 17 18 19 20 21 22 23 24 25 26 27 28 29 30 31 32 33 34 35 36 37 38 39 40 41 42 43 44 45 46 47 48 49 50
000
ASUS45 KTFX 300219
RWRMT
MONTANA REGIONAL WEATHER ROUNDUP
NATIONAL WEATHER SERVICE GREAT FALLS MT
800 PM MDT SAT AUG 29 2015

NOTE: "FAIR" INDICATES FEW OR NO CLOUDS BELOW 12000 FEET WITH NO
SIGNIFICANT WEATHER AND/OR OBSTRUCTIONS TO VISIBILITY.

MTZ001>007-043-300300-
WEST OF THE DIVIDE

CITY           SKY/WX    TMP DP  RH WIND       PRES   REMARKS
KALISPELL      CLOUDY    71  44  37 W15G26    29.84R SMOKE
MISSOULA       CLOUDY    75  44  33 N12       29.81S HAZE
BUTTE          MOCLDY    72  48  42 CALM      29.90R
MULLAN PASS    CLOUDY    48  46  93 CALM      29.99F
DEER LODGE       N/A     73  41  31 NW21G29   29.87R
EUREKA           N/A     66  41  39 SE8       29.86R
HAMILTON         N/A     75  45  33 NE5       29.80R
LIBBY            N/A     64  45  48 SE6       29.85F
PLAINS           N/A     72  48  42 W21       29.87R
RONAN            N/A     73  46  38 SE2       29.88R
THOMPSON FALLS   N/A     67  52  58 W9        29.93
$$

MTZ008-052>055-300300-
SOUTHWEST MONTANA

CITY           SKY/WX    TMP DP  RH WIND       PRES   REMARKS
BOZEMAN        CLOUDY    82  41  23 S21       29.82S
DILLON         CLOUDY    79  35  20 SW10G22   29.85S
W YELLOWSTONE  CLOUDY    64  45  48 CALM      30.09R
THREE FORKS      N/A     84  25  11 S18       29.81R
TWIN BRIDGES     N/A     83  42  23 SE12      29.86R
$$

MTZ009-010-012-014-046-048-049-054-300300-
EAST SLOPES AND CENTRAL MONTANA

CITY           SKY/WX    TMP DP  RH WIND       PRES   REMARKS
CUT BANK       CLOUDY    75  42  30 W23G29    29.74R HAZE
GREAT FALLS    MOCLDY    73  55  53 S15       29.74S
MALMSTROM AFB  CLOUDY    73  56  55 SE10G21   29.73S
HELENA         CLOUDY    73  57  57 SE6       29.74F
CONRAD           N/A     78  56  46 SE2       29.79R
$$

MTZ011-013-016-021-045-047-050-051-300300-
NORTH CENTRAL MONTANA

CITY           SKY/WX    TMP DP  RH WIND       PRES   REMARKS
HAVRE          CLOUDY    73  58  59 MISG      29.76S
LEWISTOWN      CLOUDY    82  43  25 S7        29.80R
N BAR RANCH      N/A     82  41  23 SW20      29.86S
CHINOOK          N/A     82  52  34 W26G38    29.72R
FORT BENTON      N/A     73  55  53 E10       29.70S
$$

MTZ017>020-022>027-061-062-300300-
NORTHEAST MONTANA

CITY           SKY/WX    TMP DP  RH WIND       PRES   REMARKS
GLASGOW        HAZE      80  43  26 E12       29.70F VSB 1
JORDAN           N/A     82  43  25 E5        29.73F
SIDNEY         CLOUDY    81  55  41 NE3       29.75S
WOLF POINT     CLOUDY    81  48  31 E5        29.72F HAZE
MALTA            N/A     81  48  31 CALM      29.67F
PLENTYWOOD       N/A     75  46  35 E8        29.77F VSB 1
POPLAR           N/A     82  52  34 NE10      29.73F
$$

MTZ028>42-056>058-300300-
SOUTHCENTRAL AND SOUTHEAST MONTANA

CITY           SKY/WX    TMP DP  RH WIND       PRES   REMARKS
BAKER          MOCLDY    81  50  33 S14       29.85R
BILLINGS       CLOUDY    83  42  23 SW5       29.82F
LIVINGSTON     MOCLDY    82  41  23 SW24G35   29.84S
MILES CITY     MOCLDY    88  42  20 SE6       29.75F
FORSYTH          N/A     86  39  19 SE5       29.75S
LAUREL           N/A     80  43  27 CALM      29.83F
ROUNDUP          N/A     86  40  19 CALM      29.73S
$$

REGIONAL REPORTS...DAKOTAS

CITY           SKY/WX    TMP DP  RH WIND       PRES   REMARKS
WILLISTON      CLOUDY    82  53  36 NE8       29.75F HAZE
MINOT          MOCLDY    75  58  55 NE3       29.77S HAZE
DICKINSON      MOCLDY    76  47  35 S6        29.82S
BEACH            N/A     73  46  38 S8        29.83R
CROSBY           N/A     72  55  56 E3        29.79S HAZE
BISMARCK       MOCLDY    76  62  62 SE8       29.82S
GRAND FORKS    PTCLDY    73  68  84 S9        29.82S
FARGO          MOCLDY    75  66  73 S15       29.87R
BUFFALO SD       N/A     80  53  39 SE14      29.81F
RAPID CITY     CLEAR     75  51  43 SE6       29.92S
$$

REGIONAL REPORTS...WYOMING/IDAHO/WASHINGTON

CITY           SKY/WX    TMP DP  RH WIND       PRES   REMARKS
GILLETTE       PTCLDY    74  42  31 S12       29.91F
SHERIDAN       CLOUDY    74  46  36 W6        29.86S
BUFFALO WY     MOCLDY    80  34  19 W6        29.96F
CODY           CLOUDY    75  43  31 S5        29.95F
YELLOWSTONE LA   N/A     67  40  37 CALM      30.20S
IDAHO FALLS    LGT RAIN  70  51  51 NW13      29.95R
SALMON         CLOUDY    79  39  24 S8        29.77S
BOISE          CLOUDY    85  43  22 CALM      29.77F
SPOKANE        MOCLDY    70  41  34 SW17      29.82S DUST
$$

REGIONAL REPORTS...ALBERTA

CITY           SKY/WX    TMP DP  RH WIND       PRES   REMARKS
EDMONTON       CLEAR     73  50  43 SE13G22   29.43F
CALGARY        PTCLDY    72  43  35 SW12G22   29.61R
LETHBRIDGE     CLOUDY    75  41  29 SW17G23   29.69R SMOKE
MEDICINE HAT   CLOUDY    79  48  34 S6        29.61R SMOKE
WATERTON GATE    N/A     68  41  37 W25G37      N/A
CARDSTON         N/A     73  41  31 SW10G17     N/A
MILK RIVER       N/A     75  45  33 W9          N/A
$$

REGIONAL REPORTS...SASKATCHEWAN

CITY           SKY/WX    TMP DP  RH WIND       PRES   REMARKS
SWIFT CURRENT  PTCLDY    73  52  46 SE12G17   29.69F HAZE
REGINA         CLOUDY    73  55  53 E8        29.74F SMOKE
SASKATOON      CLOUDY    70  55  60 E8        29.66F
CYPRESS HILLS    N/A     73  41  31 S6          N/A
VAL MARIE        N/A     79  43  27 SE12        N/A
ROCKGLEN         N/A     75  48  38 E12         N/A
$$



USA.gov is the U.S. government's official web portal to all federal, state and local government web resources and services.